This is the latest recevied weather packets stored in our database for station/object KI6PPU. If no packets are shown the sender has not sent any weather packets the latest 10 day(s).
| Time | Temp. | Humidity | Pressure | Rain* | Wind** | Luminosity | Snow |
|---|---|---|---|---|---|---|---|
| 1777348073 | 12.22° C | 75% | 1020 hPa | 0 mm | - | 0 W/m² | - |
| 1777347772 | 12.22° C | 75% | 1019.9 hPa | 0 mm | - | 0 W/m² | - |
| 1777347469 | 12.22° C | 74% | 1019.8 hPa | 0 mm | - | 0 W/m² | - |
| 1777347169 | 12.78° C | 70% | 1019.8 hPa | 0 mm | - | 0 W/m² | - |
| 1777346865 | 12.78° C | 69% | 1019.9 hPa | 0 mm | - | 0 W/m² | - |
| 1777346562 | 12.78° C | 69% | 1019.6 hPa | 0 mm | - | 0 W/m² | - |
| 1777346259 | 13.33° C | 70% | 1019.6 hPa | 0 mm | - | 0 W/m² | - |
| 1777345956 | 13.89° C | 69% | 1019.8 hPa | 0 mm | - | 0 W/m² | - |
| 1777345654 | 13.89° C | 68% | 1019.6 hPa | 0 mm | - | 0 W/m² | - |
| 1777345349 | 13.89° C | 66% | 1019.4 hPa | 0 mm | - | 0 W/m² | - |
| 1777345047 | 14.44° C | 65% | 1019.4 hPa | 0 mm | - | 0 W/m² | - |
| 1777344743 | 14.44° C | 67% | 1019.4 hPa | 0 mm | - | 0 W/m² | - |
| 1777344439 | 14.44° C | 68% | 1019.1 hPa | 0 mm | - | 0 W/m² | - |
| 1777344138 | 15° C | 70% | 1019 hPa | 0 mm | - | 1 W/m² | - |
| 1777343834 | 15° C | 70% | 1019.3 hPa | 0 mm | - | 4 W/m² | - |
| 1777343531 | 15° C | 68% | 1019.1 hPa | 0 mm | - | 9 W/m² | - |
| 1777343229 | 15° C | 63% | 1019.2 hPa | 0 mm | - | 11 W/m² | - |
| 1777342926 | 15.56° C | 62% | 1019.1 hPa | 0 mm | - | 15 W/m² | - |
| 1777342623 | 16.11° C | 62% | 1019.2 hPa | 0 mm | - | 21 W/m² | - |
| 1777342319 | 16.67° C | 56% | 1019.2 hPa | 0 mm | - | 26 W/m² | - |
| 1777342016 | 16.67° C | 55% | 1018.9 hPa | 0 mm | - | 32 W/m² | - |
| 1777341713 | 16.67° C | 52% | 1019 hPa | 0 mm | - | 34 W/m² | - |
| 1777341410 | 17.22° C | 53% | 1019 hPa | 0 mm | - | 35 W/m² | - |
| 1777341106 | 17.22° C | 51% | 1018.9 hPa | 0 mm | - | 42 W/m² | - |
| 1777340803 | 17.22° C | 50% | 1018.9 hPa | 0 mm | - | 51 W/m² | - |
* Rain latest hour (hover to see other rain measurements)
** Current wind speed in m/s (hover to see current wind gust speed)